EA8CHC Weather Reports


Display with metric or nautical units.
time (UTC)temp
F
wind
direction
speed
MPH
gust
MPH
rain 1hr
in
rain 24hr
in
rain mn
in
humidity
%
barometer
mb
20260508073205 60 188 3.0 6.0 0.00 0.00 0.00 74 1010.4
20260508072705 60 227 3.0 6.0 0.00 0.00 0.00 74 1010.4
20260508071705 60 155 3.0 6.0 0.00 0.00 0.00 76 1010.3
20260508071205 60 219 3.0 6.0 0.00 0.00 0.00 75 1010.2
20260508070205 59 194 3.0 5.0 0.00 0.00 0.00 77 1010.2
20260508065704 59 175 2.0 5.0 0.00 0.00 0.00 78 1010.1
20260508064205 58 190 3.0 6.0 0.00 0.00 0.00 80 1010.0
20260508063704 57 222 3.0 6.0 0.00 0.00 0.00 81 1010.0
20260508062704 57 215 3.0 6.0 0.00 0.00 0.00 82 1010.0
20260508061732 56 232 4.0 6.0 0.00 0.00 0.00 83 1009.9
20260508060704 56 234 4.0 6.0 0.00 0.00 0.00 83 1009.9
20260508060205 56 222 4.0 6.0 0.00 0.00 0.00 83 1009.8
20260508055704 55 229 3.0 6.0 0.00 0.00 0.00 84 1009.9
20260508055204 55 257 3.0 6.0 0.00 0.00 0.00 84 1009.7
20260508054205 54 232 3.0 5.0 0.00 0.00 0.00 85 1009.7
20260508053705 54 227 3.0 5.0 0.00 0.00 0.00 85 1009.7
20260508053205 54 244 3.0 5.0 0.00 0.00 0.00 85 1009.6
20260508052705 54 234 3.0 4.0 0.00 0.00 0.00 85 1009.5
20260508052205 54 242 2.0 4.0 0.00 0.00 0.00 84 1009.4
20260508050705 54 241 2.0 4.0 0.00 0.00 0.00 84 1009.0
20260508050205 54 241 2.0 4.0 0.00 0.00 0.00 84 1009.1
20260508045704 54 241 2.0 4.0 0.00 0.00 0.00 84 1008.9
20260508045204 54 227 2.0 4.0 0.00 0.00 0.00 83 1008.9
20260508044705 55 229 3.0 4.0 0.00 0.00 0.00 83 1008.9
20260508044205 55 232 3.0 5.0 0.00 0.00 0.00 82 1008.9
20260508043705 55 219 3.0 7.0 0.00 0.00 0.00 81 1009.0
20260508043205 56 207 3.0 7.0 0.00 0.00 0.00 80 1008.9
20260508042705 56 207 3.0 7.0 0.00 0.00 0.00 80 1008.9
20260508042205 57 153 4.0 7.0 0.00 0.00 0.00 80 1008.7
20260508041204 56 157 3.0 7.0 0.00 0.00 0.00 80 1008.4
20260508040705 56 154 3.0 7.0 0.00 0.00 0.00 80 1008.5
20260508040205 56 172 3.0 7.0 0.00 0.00 0.00 80 1008.7
20260508035704 56 167 3.0 7.0 0.00 0.00 0.00 80 1008.7
20260508034705 56 179 3.0 7.0 0.00 0.00 0.00 79 1008.8
20260508033704 56 175 3.0 6.0 0.00 0.00 0.00 79 1008.8
20260508033205 56 160 3.0 6.0 0.00 0.00 0.00 79 1008.7
20260508032704 56 129 3.0 6.0 0.00 0.00 0.00 79 1008.7
20260508032205 56 136 3.0 6.0 0.00 0.00 0.00 79 1008.7
20260508031705 57 134 3.0 6.0 0.00 0.00 0.00 78 1008.8
20260508031205 57 130 4.0 10.0 0.00 0.00 0.00 78 1008.8
20260508030705 57 112 4.0 10.0 0.00 0.00 0.00 78 1008.8
20260508030205 57 161 4.0 10.0 0.00 0.00 0.00 78 1008.9
20260508025727 57 165 4.0 7.0 0.00 0.00 0.00 78 1009.0
20260508024205 57 166 3.0 7.0 0.00 0.00 0.00 78 1009.0
20260508023704 57 152 3.0 8.0 0.00 0.00 0.00 78 1009.1
20260508023205 57 135 4.0 8.0 0.00 0.00 0.00 78 1008.9
20260508022705 57 132 4.0 8.0 0.00 0.00 0.00 77 1009.0
20260508022205 57 159 4.0 7.0 0.00 0.00 0.00 77 1009.1
20260508021705 57 172 4.0 8.0 0.00 0.00 0.00 78 1009.1
20260508020705 58 161 4.0 8.0 0.00 0.00 0.00 78 1009.2
20260508020205 58 156 4.0 7.0 0.00 0.00 0.00 78 1009.1
20260508015205 58 153 4.0 7.0 0.00 0.00 0.00 78 1009.2
20260508014704 58 135 4.0 7.0 0.00 0.00 0.00 78 1009.2
20260508014205 58 138 4.0 7.0 0.00 0.00 0.00 78 1009.2
20260508013705 57 153 3.0 7.0 0.00 0.00 0.00 78 1009.2
20260508013205 57 158 3.0 7.0 0.00 0.00 0.00 78 1009.4
20260508012705 57 166 3.0 6.0 0.00 0.00 0.00 79 1009.4
20260508012204 57 172 3.0 5.0 0.00 0.00 0.00 79 1009.4
20260508011704 56 182 3.0 5.0 0.00 0.00 0.00 79 1009.4
20260508011205 56 168 3.0 5.0 0.00 0.00 0.00 79 1009.4
20260508010704 56 208 3.0 5.0 0.00 0.00 0.00 79 1009.4
20260508010205 57 191 3.0 5.0 0.00 0.00 0.00 79 1009.4
20260508005205 57 193 3.0 5.0 0.00 0.00 0.00 79 1009.4
20260508004705 57 180 2.0 5.0 0.00 0.00 0.00 79 1009.5
20260508004205 57 182 2.0 5.0 0.00 0.00 0.00 79 1009.7
20260508003204 57 190 3.0 6.0 0.00 0.00 0.00 78 1009.7
20260508002705 58 189 3.0 6.0 0.00 0.00 0.00 78 1009.8
20260508002204 58 186 3.0 6.0 0.00 0.00 0.00 78 1009.7
20260508001705 58 177 3.0 7.0 0.00 0.00 0.00 77 1009.6
20260508000705 58 154 3.0 7.0 0.00 0.00 0.00 78 1009.6
20260508000205 58 188 2.0 5.0 0.00 0.00 0.00 78 1009.7
20260507235705 57 170 2.0 5.0 0.00 0.00 0.00 78 1009.6
20260507235204 57 181 2.0 5.0 0.00 0.00 0.00 78 1009.6
20260507234705 57 190 3.0 7.0 0.00 0.00 0.00 78 1009.7
20260507234205 58 192 3.0 7.0 0.00 0.00 0.00 77 1009.8
20260507233205 58 182 4.0 6.0 0.00 0.00 0.00 76 1009.9
20260507232704 58 191 3.0 6.0 0.00 0.00 0.00 76 1009.9
20260507232205 58 196 3.0 6.0 0.00 0.00 0.00 76 1009.8
20260507231705 58 182 3.0 6.0 0.00 0.00 0.00 76 1009.8
20260507231205 58 187 3.0 6.0 0.00 0.00 0.00 76 1009.8
20260507230704 58 178 4.0 8.0 0.00 0.00 0.00 76 1009.8
20260507230224 59 182 4.0 8.0 0.00 0.00 0.00 76 1010.1
20260507225705 59 167 4.0 8.0 0.00 0.00 0.00 76 1010.1
20260507224705 58 165 3.0 6.0 0.00 0.00 0.00 77 1010.0
20260507223705 58 186 3.0 6.0 0.00 0.00 0.00 77 1010.2
20260507223205 58 187 3.0 6.0 0.00 0.00 0.00 77 1010.2
20260507222704 58 205 3.0 6.0 0.00 0.00 0.00 77 1010.3
20260507222205 58 186 3.0 6.0 0.00 0.00 0.00 76 1010.4
20260507221206 58 174 4.0 6.0 0.00 0.00 0.00 76 1010.4
20260507220704 58 175 3.0 5.0 0.00 0.00 0.00 76 1010.4
20260507220206 58 180 3.0 4.0 0.00 0.00 0.00 75 1010.3
20260507215704 58 184 3.0 4.0 0.00 0.00 0.00 74 1010.3
20260507215205 58 180 3.0 4.0 0.00 0.00 0.00 73 1010.4
20260507214705 59 219 3.0 3.0 0.00 0.00 0.00 72 1010.3
20260507213704 59 235 2.0 4.0 0.00 0.00 0.00 72 1010.2
20260507213204 59 235 2.0 4.0 0.00 0.00 0.00 72 1010.3
20260507212704 59 235 3.0 5.0 0.00 0.00 0.00 72 1010.4
20260507212205 59 244 3.0 5.0 0.00 0.00 0.00 71 1010.4
20260507211705 59 237 3.0 5.0 0.00 0.00 0.00 71 1010.4
20260507211205 59 235 3.0 5.0 0.00 0.00 0.00 70 1010.2
20260507210205 60 250 3.0 7.0 0.00 0.00 0.00 69 1010.1
20260507204705 60 252 4.0 6.0 0.00 0.00 0.00 68 1009.8
20260507203705 60 260 4.0 7.0 0.00 0.00 0.00 68 1009.9
20260507203205 60 269 4.0 7.0 0.00 0.00 0.00 67 1009.9
20260507202705 60 269 3.0 5.0 0.00 0.00 0.00 67 1009.8
20260507202205 60 275 3.0 6.0 0.00 0.00 0.00 67 1009.8
20260507201705 60 280 3.0 8.0 0.00 0.00 0.00 66 1009.8
20260507200205 60 268 4.0 7.0 0.00 0.00 0.00 66 1009.8
20260507195205 61 250 4.0 8.0 0.00 0.00 0.00 66 1009.9
20260507194705 61 248 4.0 8.0 0.00 0.00 0.00 66 1009.8
20260507194205 61 273 4.0 9.0 0.00 0.00 0.00 66 1009.9
20260507193705 61 242 5.0 9.0 0.00 0.00 0.00 66 1009.8
20260507193205 61 246 5.0 9.0 0.00 0.00 0.00 66 1009.7
20260507192704 62 267 5.0 10.0 0.00 0.00 0.00 66 1009.6
20260507192205 62 247 6.0 12.0 0.00 0.00 0.00 66 1009.6
20260507191704 62 230 6.0 12.0 0.00 0.00 0.00 66 1009.6
20260507191205 62 228 6.0 10.0 0.00 0.00 0.00 65 1009.6
20260507190705 62 254 5.0 13.0 0.00 0.00 0.00 64 1009.6
20260507190226 63 256 6.0 14.0 0.00 0.00 0.00 63 1009.6
20260507185705 63 250 7.0 15.0 0.00 0.00 0.00 61 1009.2
20260507185204 63 223 8.0 16.0 0.00 0.00 0.00 60 1009.3
20260507184704 64 240 8.0 16.0 0.00 0.00 0.00 61 1009.3
20260507184204 64 239 9.0 16.0 0.00 0.00 0.00 60 1009.2
20260507183705 65 236 8.0 16.0 0.00 0.00 0.00 59 1009.1
20260507183205 65 244 9.0 16.0 0.00 0.00 0.00 57 1009.0
20260507182704 65 268 10.0 16.0 0.00 0.00 0.00 56 1009.0
20260507182205 65 238 10.0 16.0 0.00 0.00 0.00 56 1008.9
20260507181704 65 249 9.0 16.0 0.00 0.00 0.00 55 1008.9
20260507181205 66 227 9.0 15.0 0.00 0.00 0.00 54 1008.9
20260507180705 66 231 9.0 15.0 0.00 0.00 0.00 54 1008.8
20260507180205 66 236 9.0 17.0 0.00 0.00 0.00 53 1008.9
20260507175704 67 226 10.0 17.0 0.00 0.00 0.00 53 1008.8
20260507175205 67 224 9.0 17.0 0.00 0.00 0.00 54 1008.7
20260507174704 67 197 8.0 16.0 0.00 0.00 0.00 53 1008.7
20260507174205 68 230 9.0 16.0 0.00 0.00 0.00 52 1008.6
20260507173704 68 243 10.0 15.0 0.00 0.00 0.00 52 1008.6
20260507172705 68 237 9.0 16.0 0.00 0.00 0.00 53 1008.5
20260507172204 68 225 9.0 16.0 0.00 0.00 0.00 53 1008.5
20260507171705 69 223 9.0 16.0 0.00 0.00 0.00 51 1008.4
20260507171204 69 245 9.0 17.0 0.00 0.00 0.00 52 1008.3
20260507170705 69 214 9.0 17.0 0.00 0.00 0.00 50 1008.3
20260507170206 69 241 8.0 15.0 0.00 0.00 0.00 50 1008.2
20260507165704 69 238 9.0 15.0 0.00 0.00 0.00 50 1008.1
20260507165204 69 274 9.0 20.0 0.00 0.00 0.00 49 1008.1
20260507164705 70 258 9.0 20.0 0.00 0.00 0.00 48 1008.2
20260507164204 70 219 9.0 16.0 0.00 0.00 0.00 48 1008.1
20260507163704 70 207 9.0 16.0 0.00 0.00 0.00 47 1008.1
20260507163205 70 253 9.0 16.0 0.00 0.00 0.00 47 1008.2
20260507162705 71 227 9.0 17.0 0.00 0.00 0.00 46 1008.2
20260507162204 71 223 9.0 17.0 0.00 0.00 0.00 48 1008.1
20260507161704 71 206 9.0 16.0 0.00 0.00 0.00 48 1008.1
20260507161205 71 207 10.0 17.0 0.00 0.00 0.00 47 1008.0
20260507160705 71 244 9.0 18.0 0.00 0.00 0.00 45 1008.0
20260507160205 71 279 10.0 18.0 0.00 0.00 0.00 45 1008.0
20260507155705 71 229 10.0 16.0 0.00 0.00 0.00 46 1007.8
20260507155204 71 225 9.0 16.0 0.00 0.00 0.00 46 1007.9
20260507154704 72 226 9.0 16.0 0.00 0.00 0.00 46 1008.1
20260507154204 72 202 8.0 16.0 0.00 0.00 0.00 45 1008.0
20260507153705 72 253 7.0 14.0 0.00 0.00 0.00 42 1008.0
20260507152705 72 260 8.0 17.0 0.00 0.00 0.00 42 1008.0
20260507152205 72 230 8.0 17.0 0.00 0.00 0.00 41 1008.0
20260507151205 72 225 6.0 13.0 0.00 0.00 0.00 45 1008.1
20260507150704 72 252 7.0 15.0 0.00 0.00 0.00 43 1008.1
20260507150205 71 186 8.0 15.0 0.00 0.00 0.00 45 1008.1
20260507145705 71 240 8.0 15.0 0.00 0.00 0.00 46 1008.2
20260507145205 72 213 7.0 14.0 0.00 0.00 0.00 47 1008.2
20260507144704 72 250 8.0 16.0 0.00 0.00 0.00 45 1008.2
20260507144205 71 233 9.0 16.0 0.00 0.00 0.00 44 1008.2
20260507143705 72 250 9.0 16.0 0.00 0.00 0.00 44 1008.2
20260507143205 71 189 8.0 16.0 0.00 0.00 0.00 47 1008.4
20260507142704 71 194 8.0 16.0 0.00 0.00 0.00 48 1008.4
20260507142204 71 246 8.0 17.0 0.00 0.00 0.00 50 1008.4
20260507141704 71 149 9.0 17.0 0.00 0.00 0.00 49 1008.5
20260507141205 71 275 9.0 17.0 0.00 0.00 0.00 51 1008.5
20260507140705 71 202 9.0 18.0 0.00 0.00 0.00 51 1008.6
20260507140205 71 216 9.0 18.0 0.00 0.00 0.00 52 1008.6
20260507135204 71 186 7.0 17.0 0.00 0.00 0.00 53 1008.6
20260507134705 71 219 8.0 17.0 0.00 0.00 0.00 52 1008.5
20260507133705 71 219 9.0 18.0 0.00 0.00 0.00 53 1008.7
20260507133205 71 223 9.0 18.0 0.00 0.00 0.00 53 1008.7
20260507132704 71 200 8.0 15.0 0.00 0.00 0.00 53 1008.8
20260507132205 70 248 8.0 15.0 0.00 0.00 0.00 54 1008.8
20260507131705 70 203 9.0 15.0 0.00 0.00 0.00 54 1008.7
20260507131205 70 191 8.0 15.0 0.00 0.00 0.00 54 1008.9
20260507130705 70 235 8.0 15.0 0.00 0.00 0.00 55 1008.9
20260507130205 70 220 8.0 14.0 0.00 0.00 0.00 52 1008.8
20260507125204 70 221 8.0 14.0 0.00 0.00 0.00 52 1008.9
20260507124705 70 218 8.0 14.0 0.00 0.00 0.00 53 1008.9
20260507124205 70 183 8.0 14.0 0.00 0.00 0.00 55 1009.0
20260507123705 70 191 7.0 15.0 0.00 0.00 0.00 57 1009.0
20260507123205 70 223 8.0 15.0 0.00 0.00 0.00 55 1009.1
20260507122706 70 215 8.0 15.0 0.00 0.00 0.00 57 1009.2
20260507122205 69 212 8.0 20.0 0.00 0.00 0.00 58 1009.3
20260507121705 69 213 9.0 20.0 0.00 0.00 0.00 54 1009.3
20260507121205 70 211 8.0 20.0 0.00 0.00 0.00 55 1009.3
20260507120704 70 180 8.0 16.0 0.00 0.00 0.00 58 1009.3
20260507120205 69 215 9.0 18.0 0.00 0.00 0.00 57 1009.4
20260507115704 69 225 8.0 18.0 0.00 0.00 0.00 57 1009.4
20260507115204 70 197 9.0 16.0 0.00 0.00 0.00 57 1009.4
20260507114733 69 223 8.0 20.0 0.00 0.00 0.00 58 1009.4
20260507114204 70 238 8.0 20.0 0.00 0.00 0.00 59 1009.4
20260507113705 69 213 9.0 20.0 0.00 0.00 0.00 60 1009.4
20260507113205 69 200 8.0 15.0 0.00 0.00 0.00 60 1009.5
20260507112705 70 179 7.0 17.0 0.00 0.00 0.00 59 1009.5
20260507112205 69 213 8.0 17.0 0.00 0.00 0.00 59 1009.5
20260507111705 69 186 8.0 17.0 0.00 0.00 0.00 58 1009.5
20260507110205 68 265 7.0 15.0 0.00 0.00 0.00 61 1009.5
20260507105704 67 171 7.0 15.0 0.00 0.00 0.00 61 1009.6
20260507105205 68 232 7.0 15.0 0.00 0.00 0.00 60 1009.5
20260507104204 67 197 7.0 13.0 0.00 0.00 0.00 62 1009.6
20260507103705 68 176 5.0 12.0 0.00 0.00 0.00 61 1009.6
20260507103204 68 219 6.0 12.0 0.00 0.00 0.00 63 1009.6
20260507102704 67 148 6.0 13.0 0.00 0.00 0.00 66 1009.7
20260507102204 66 219 6.0 13.0 0.00 0.00 0.00 66 1009.8
20260507101704 66 242 6.0 13.0 0.00 0.00 0.00 65 1009.7
20260507101205 66 196 7.0 13.0 0.00 0.00 0.00 65 1009.7
20260507100705 67 196 6.0 13.0 0.00 0.00 0.00 64 1009.8
20260507100205 66 169 6.0 11.0 0.00 0.00 0.00 66 1009.7
20260507095705 65 152 6.0 12.0 0.00 0.00 0.00 67 1009.8
20260507095204 65 205 7.0 13.0 0.00 0.00 0.00 67 1009.9
20260507094704 66 157 7.0 13.0 0.00 0.00 0.00 66 1009.8
20260507094205 66 135 7.0 12.0 0.00 0.00 0.00 65 1010.0
20260507093205 65 185 7.0 13.0 0.00 0.00 0.00 68 1009.7
20260507092704 65 194 7.0 12.0 0.00 0.00 0.00 68 1009.7
20260507091220 64 165 7.0 13.0 0.00 0.00 0.00 70 1009.6
20260507090205 65 200 6.0 12.0 0.00 0.00 0.00 69 1009.6
20260507085705 65 161 7.0 13.0 0.00 0.00 0.00 69 1009.6
20260507085205 65 161 7.0 13.0 0.00 0.00 0.00 71 1009.6
20260507084705 65 205 8.0 17.0 0.00 0.00 0.00 71 1009.6
20260507084204 64 182 8.0 17.0 0.00 0.00 0.00 72 1009.6
20260507083704 63 171 7.0 17.0 0.00 0.00 0.00 73 1009.6
20260507083205 63 160 6.0 12.0 0.00 0.00 0.00 74 1009.6
20260507082705 63 190 6.0 11.0 0.00 0.00 0.00 75 1009.6
20260507082205 63 144 6.0 11.0 0.00 0.00 0.00 75 1009.6
20260507081704 63 203 6.0 11.0 0.00 0.00 0.00 74 1009.6
20260507081205 63 119 6.0 12.0 0.00 0.00 0.00 76 1009.6
20260507080705 62 147 6.0 14.0 0.00 0.00 0.00 76 1009.5
20260507080205 62 167 7.0 14.0 0.00 0.00 0.00 76 1009.4
20260507075704 62 126 7.0 14.0 0.00 0.00 0.00 76 1009.4
20260507075204 62 101 7.0 14.0 0.00 0.00 0.00 77 1009.3
20260507074704 61 99 7.0 13.0 0.00 0.00 0.00 77 1009.3
20260507074204 60 139 7.0 13.0 0.00 0.00 0.00 78 1009.3
20260507073704 60 147 6.0 11.0 0.00 0.00 0.00 79 1009.1